Location: Helion Bumpstead
(52.0500°N, 0.4000°E)
Time: 11:15:03
(UTC+00:00)

Cosmos 1656 Rocket - Pass Details

Date: 15 November 2025
Orbit: 791 x 846 km, 71.1° (Epoch: 10 December)

Event Time Altitude Azimuth Distance (km) Brightness Sun altitude
Exits shadow 04:20:07 51° 347° (NNW) 1,065 4.1 -27.2°
Maximum altitude 04:21:35 75° 58° (ENE) 879 3.8 -27.0°
Drops below altitude 10° 04:27:15 10° 144° (SE) 2,462 6.5 -26.1°
Sets 04:29:42 0° 146° (SE) 3,390 7.3 -25.7°
